Location: Krasnoyarskiy Pitomnik
(51.1333°N, 71.6167°E)
Time: 21:11:56
(UTC+00:00)

Altair - Pass Details

Date: 18 April 2024
Orbit: 1501 x 1682 km, 47.2° (Epoch: 19 May)

Event Time Altitude Azimuth Distance (km) Brightness Sun altitude
Rises 22:39:41 0° 283° (WNW) 4,756 9.7 -13.2°
Enters shadow 22:42:49 - 270° (W) 4,131 9.3 -12.9°
Reaches altitude 10° 22:45:55 10° 253° (WSW) 3,721 - -12.5°
Maximum altitude 22:48:23 11° 237° (WSW) 3,601 - -12.1°
Drops below altitude 10° 22:50:50 10° 222° (SW) 3,686 - -11.8°
Exits shadow 22:55:06 - 199° (SSW) 4,261 9.3 -11.3°
Sets 22:56:57 0° 191° (S) 4,634 9.6 -11.0°
